,,PA_Meas_PMT16A,,PR_Meas_QMR101_102,,RH_Meas_QMH101,,SR_Meas_QMS101,,TA_Meas_QMH101,,GenWind,,GenWind,
time,status,PA,status,PR,status,RH,status,SR,status,TA,status,DirAvg,status,SpdAvg,
2012-02-08, 00:00:04,VALID,917.629,VALID,0,VALID,96.8784,VALID,0,VALID,19.5093,VALID,135,VALID,0.495703,
2012-02-08, 00:01:04,VALID,917.654,VALID,0,VALID,96.886,VALID,0,VALID,19.4268,VALID,133,VALID,0.678125,
2012-02-08, 00:02:04,VALID,917.638,VALID,0,VALID,96.886,VALID,0,VALID,19.4898,VALID,165,VALID,0.557031,
2012-02-08, 00:03:04,VALID,917.609,VALID,0,VALID,96.9089,VALID,0,VALID,19.4913,VALID,169,VALID,0.571484,
2012-02-08, 00:04:04,VALID,917.632,VALID,0,VALID,96.9089,VALID,0,VALID,19.4074,VALID,166,VALID,0.483203,
2012-02-08, 00:05:04,VALID,917.632,VALID,0,VALID,96.9165,VALID,0,VALID,19.4074,VALID,163,VALID,0.864844,
2012-02-08, 00:06:04,VALID,917.6,VALID,0,VALID,96.9317,VALID,0,VALID,19.4103,VALID,163,VALID,0.43125,
2012-02-08, 00:07:04,VALID,917.624,VALID,0,VALID,96.947,VALID,0,VALID,19.4103,VALID,163,VALID,0.644922,
2012-02-08, 00:08:04,VALID,917.597,VALID,0,VALID,96.947,VALID,0,VALID,19.4103,VALID,163,VALID,0.529297,
2012-02-08, 00:09:04,VALID,917.605,VALID,0,VALID,96.9927,VALID,0,VALID,19.4103,VALID,163,VALID,0.505469,
2012-02-08, 00:10:04,VALID,917.582,VALID,0,VALID,97.0232,VALID,0,VALID,19.4298,VALID,163,VALID,0.493359,
2012-02-08, 00:11:04,VALID,917.586,VALID,0,VALID,97.0003,VALID,0,VALID,19.4703,VALID,163,VALID,1.07148,
2012-02-08, 00:12:04,VALID,917.559,VALID,0,VALID,97.0003,VALID,0,VALID,19.4508,VALID,163,VALID,0.991406,
2012-02-08, 00:13:04,VALID,917.571,VALID,0,VALID,97.008,VALID,0,VALID,19.4298,VALID,163,VALID,0.746484,
2012-02-08, 00:14:04,VALID,917.531,VALID,0,VALID,97.0385,VALID,0,VALID,19.4298,VALID,163,VALID,0.411328,
2012-02-08, 00:15:04,VALID,917.55,VALID,0,VALID,97.0461,VALID,0.107441,VALID,19.4088,VALID,187,VALID,0.699219,
2012-02-08, 00:16:04,VALID,917.566,VALID,0,VALID,97.069,VALID,0,VALID,19.4493,VALID,186,VALID,0.920313,
2012-02-08, 00:17:04,VALID,917.593,VALID,0,VALID,97.069,VALID,0,VALID,19.4298,VALID,186,VALID,0.554688,
2012-02-08, 00:18:04,VALID,917.588,VALID,0,VALID,97.069,VALID,0,VALID,19.4283,VALID,186,VALID,0.06875,
2012-02-08, 00:19:04,VALID,917.592,VALID,0,VALID,97.0994,VALID,0,VALID,19.4103,VALID,151,VALID,0.917969,
2012-02-08, 00:20:04,VALID,917.596,VALID,0,VALID,97.0613,VALID,0,VALID,19.4103,VALID,149,VALID,0,
2012-02-08, 00:21:04,VALID,917.58,VALID,0,VALID,97.1071,VALID,0,VALID,19.4298,VALID,149,VALID,0.342578,
2012-02-08, 00:22:04,VALID,917.596,VALID,0,VALID,97.0994,VALID,0,VALID,19.4298,VALID,149,VALID,0.996094,
2012-02-08, 00:23:04,VALID,917.597,VALID,0,VALID,97.1071,VALID,0,VALID,19.4298,VALID,160,VALID,1.6625,
2012-02-08, 00:24:04,VALID,917.582,VALID,0,VALID,97.1147,VALID,0,VALID,19.4103,VALID,164,VALID,1.01406,
2012-02-08, 00:25:04,VALID,917.614,VALID,0,VALID,97.0842,VALID,0,VALID,19.4103,VALID,164,VALID,0.326172,
2012-02-08, 00:26:04,VALID,917.588,VALID,0,VALID,97.1071,VALID,0,VALID,19.3698,VALID,164,VALID,0.676562,
2012-02-08, 00:27:04,VALID,917.582,VALID,0,VALID,97.0994,VALID,0.107441,VALID,19.3698,VALID,164,VALID,0.854688,
2012-02-08, 00:28:04,VALID,917.552,VALID,0,VALID,97.0994,VALID,0,VALID,19.3518,VALID,164,VALID,0.48125,
2012-02-08, 00:29:04,VALID,917.537,VALID,0,VALID,97.1223,VALID,0,VALID,19.3713,VALID,143,VALID,0.980469,
2012-02-08, 00:30:04,VALID,917.54,VALID,0,VALID,97.1376,VALID,0,VALID,19.3713,VALID,137,VALID,1.28594,
2012-02-08, 00:31:04,VALID,917.539,VALID,0,VALID,97.0918,VALID,0,VALID,19.3518,VALID,137,VALID,0.609766,
2012-02-08, 00:32:04,VALID,917.514,VALID,0,VALID,97.1147,VALID,0,VALID,19.3308,VALID,137,VALID,0.974609,
2012-02-08, 00:33:04,VALID,917.517,VALID,0,VALID,97.1299,VALID,0,VALID,19.3518,VALID,137,VALID,1.13008,
2012-02-08, 00:34:04,VALID,917.509,VALID,0,VALID,97.1071,VALID,0.107441,VALID,19.3113,VALID,137,VALID,0.383203,
2012-02-08, 00:35:04,VALID,917.474,VALID,0,VALID,97.1299,VALID,0.107441,VALID,19.3128,VALID,137,VALID,0.555859,
2012-02-08, 00:36:04,VALID,917.479,VALID,0,VALID,97.1376,VALID,0,VALID,19.3533,VALID,137,VALID,0.942969,
2012-02-08, 00:37:04,VALID,917.438,VALID,0,VALID,97.1681,VALID,0,VALID,19.3128,VALID,137,VALID,0.946875,
2012-02-08, 00:38:04,VALID,917.403,VALID,0,VALID,97.1528,VALID,0,VALID,19.3323,VALID,151,VALID,0.457031,
2012-02-08, 00:39:04,VALID,917.414,VALID,0,VALID,97.1452,VALID,0,VALID,19.3128,VALID,135,VALID,1.09648,
2012-02-08, 00:40:04,VALID,917.412,VALID,0,VALID,97.1147,VALID,0,VALID,19.3128,VALID,135,VALID,0.761328,
2012-02-08, 00:41:04,VALID,917.368,VALID,0,VALID,97.1147,VALID,0,VALID,19.3128,VALID,136,VALID,1.23438,
2012-02-08, 00:42:04,VALID,917.364,VALID,0,VALID,97.1223,VALID,0,VALID,19.2933,VALID,126,VALID,1.21172,
2012-02-08, 00:43:04,VALID,917.339,VALID,0,VALID,97.0766,VALID,0,VALID,19.2933,VALID,149,VALID,0.891797,
2012-02-08, 00:44:04,VALID,917.357,VALID,0,VALID,97.1299,VALID,0,VALID,19.2933,VALID,138,VALID,1.37969,
2012-02-08, 00:45:04,VALID,917.354,VALID,0,VALID,97.0994,VALID,0,VALID,19.2738,VALID,150,VALID,0.871484,
2012-02-08, 00:46:04,VALID,917.333,VALID,0,VALID,97.0918,VALID,0.107441,VALID,19.2738,VALID,158,VALID,0.712891,
2012-02-08, 00:47:04,VALID,917.311,VALID,0,VALID,97.1223,VALID,0,VALID,19.2738,VALID,147,VALID,0.435156,
2012-02-08, 00:48:04,VALID,917.303,VALID,0,VALID,97.1071,VALID,0,VALID,19.2738,VALID,165,VALID,1.01367,
2012-02-08, 00:49:04,VALID,917.267,VALID,0,VALID,97.1071,VALID,0,VALID,19.2738,VALID,159,VALID,0.817578,
2012-02-08, 00:50:04,VALID,917.261,VALID,0,VALID,97.1147,VALID,0,VALID,19.2738,VALID,179,VALID,0.901172,
2012-02-08, 00:51:04,VALID,917.252,VALID,0,VALID,97.1071,VALID,0,VALID,19.2753,VALID,179,VALID,0.534766,
2012-02-08, 00:52:04,VALID,917.215,VALID,0,VALID,97.1071,VALID,0,VALID,19.2543,VALID,174,VALID,1.11445,
2012-02-08, 00:53:04,VALID,917.237,VALID,0,VALID,97.0994,VALID,0,VALID,19.2753,VALID,172,VALID,1.1207,
2012-02-08, 00:54:04,VALID,917.25,VALID,0,VALID,97.0918,VALID,0,VALID,19.2348,VALID,171,VALID,0.548047,
2012-02-08, 00:55:04,VALID,917.247,VALID,0,VALID,97.0613,VALID,0,VALID,19.2558,VALID,156,VALID,0.388672,
2012-02-08, 00:56:04,VALID,917.227,VALID,0,VALID,97.0766,VALID,0,VALID,19.2153,VALID,136,VALID,1.12969,
2012-02-08, 00:57:04,VALID,917.239,VALID,0,VALID,97.0385,VALID,0,VALID,19.1958,VALID,137,VALID,0.913281,
2012-02-08, 00:58:04,VALID,917.234,VALID,0,VALID,97.0461,VALID,0,VALID,19.1763,VALID,135,VALID,1.11367,
2012-02-08, 00:59:04,VALID,917.177,VALID,0,VALID,97.0232,VALID,0,VALID,19.1583,VALID,150,VALID,0.401563,
2012-02-08, 01:00:04,VALID,917.184,VALID,0,VALID,97.008,VALID,0,VALID,19.1373,VALID,150,VALID,0.688281,
2012-02-08, 01:01:04,VALID,917.159,VALID,0,VALID,97.0003,VALID,0,VALID,19.1792,VALID,148,VALID,1.12852,
2012-02-08, 01:02:04,VALID,917.138,VALID,0,VALID,97.0156,VALID,0,VALID,19.1597,VALID,150,VALID,0.876953,
2012-02-08, 01:03:04,VALID,917.124,VALID,0,VALID,96.9927,VALID,0,VALID,19.0759,VALID,143,VALID,0.659375,
2012-02-08, 01:04:04,VALID,917.135,VALID,0,VALID,97.0232,VALID,0,VALID,19.1597,VALID,167,VALID,1.4293,
2012-02-08, 01:05:04,VALID,917.147,VALID,0,VALID,97.0385,VALID,0,VALID,19.0759,VALID,167,VALID,1.74844,
2012-02-08, 01:06:04,VALID,917.155,VALID,0,VALID,97.0232,VALID,0,VALID,19.1402,VALID,167,VALID,0.632813,
2012-02-08, 01:07:04,VALID,917.171,VALID,0,VALID,97.0308,VALID,0,VALID,19.1193,VALID,167,VALID,0.716797,
2012-02-08, 01:08:04,VALID,917.15,VALID,0,VALID,97.0461,VALID,0,VALID,19.0593,VALID,167,VALID,0.849219,
2012-02-08, 01:09:04,VALID,917.152,VALID,0,VALID,97.0461,VALID,0,VALID,19.0355,VALID,166,VALID,1.53359,
2012-02-08, 01:10:04,VALID,917.127,VALID,0,VALID,97.0308,VALID,0,VALID,19.1417,VALID,162,VALID,0.537109,
2012-02-08, 01:11:04,VALID,917.125,VALID,0,VALID,96.9546,VALID,0,VALID,19.0175,VALID,162,VALID,0.983594,
2012-02-08, 01:12:04,VALID,917.105,VALID,0,VALID,96.9775,VALID,0,VALID,19.1012,VALID,162,VALID,0.582812,
2012-02-08, 01:13:04,VALID,917.085,VALID,0,VALID,96.9698,VALID,0,VALID,19.1027,VALID,171,VALID,0.814453,
2012-02-08, 01:14:04,VALID,917.075,VALID,0,VALID,96.9622,VALID,0,VALID,19.0608,VALID,147,VALID,1.22109,
2012-02-08, 01:15:04,VALID,917.034,VALID,0,VALID,96.9241,VALID,0,VALID,19.0622,VALID,141,VALID,0.674609,
2012-02-08, 01:16:04,VALID,917.017,VALID,0,VALID,96.9546,VALID,0,VALID,19.0203,VALID,143,VALID,0.858203,
2012-02-08, 01:17:04,VALID,917.013,VALID,0,VALID,96.9546,VALID,0,VALID,18.9994,VALID,159,VALID,0.974609,
2012-02-08, 01:18:04,VALID,917.016,VALID,0,VALID,96.9775,VALID,0,VALID,18.9799,VALID,159,VALID,1.02734,
2012-02-08, 01:19:04,VALID,917.003,VALID,0,VALID,96.9698,VALID,0,VALID,18.9799,VALID,151,VALID,0.612109,
2012-02-08, 01:20:04,VALID,916.98,VALID,0,VALID,96.9622,VALID,0,VALID,19.0008,VALID,151,VALID,0.1375,
2012-02-08, 01:21:04,VALID,916.961,VALID,0,VALID,97.0003,VALID,0,VALID,19.0413,VALID,151,VALID,0.278906,
2012-02-08, 01:22:04,VALID,916.924,VALID,0,VALID,96.9851,VALID,0,VALID,19.0008,VALID,151,VALID,0.463281,
2012-02-08, 01:23:04,VALID,916.93,VALID,0,VALID,96.9622,VALID,0,VALID,18.938,VALID,151,VALID,0.396875,
2012-02-08, 01:24:04,VALID,916.906,VALID,0,VALID,96.9165,VALID,0,VALID,18.9814,VALID,151,VALID,0.681641,
2012-02-08, 01:25:04,VALID,916.903,VALID,0,VALID,96.886,VALID,0,VALID,18.9214,VALID,151,VALID,0.652344,
2012-02-08, 01:26:04,VALID,916.894,VALID,0,VALID,96.8403,VALID,0,VALID,18.9452,VALID,151,VALID,0.627734,
2012-02-08, 01:27:04,VALID,916.894,VALID,0,VALID,96.8936,VALID,0,VALID,18.9077,VALID,151,VALID,0.791016,
2012-02-08, 01:28:04,VALID,916.886,VALID,0,VALID,96.9241,VALID,0,VALID,18.8853,VALID,151,VALID,0.905469,
2012-02-08, 01:29:04,VALID,916.865,VALID,0,VALID,96.9927,VALID,0,VALID,18.8225,VALID,151,VALID,1.11602,
2012-02-08, 01:30:04,VALID,916.858,VALID,0,VALID,96.9775,VALID,0,VALID,18.8449,VALID,151,VALID,0.410547,
2012-02-08, 01:31:04,VALID,916.874,VALID,0,VALID,96.9927,VALID,0,VALID,18.8672,VALID,151,VALID,0.683594,
2012-02-08, 01:32:04,VALID,916.837,VALID,0,VALID,97.0232,VALID,0,VALID,18.8672,VALID,151,VALID,0.951172,
2012-02-08, 01:33:04,VALID,916.835,VALID,0,VALID,97.069,VALID,0,VALID,18.8463,VALID,151,VALID,1.075,
2012-02-08, 01:34:04,VALID,916.835,VALID,0,VALID,97.0918,VALID,0,VALID,18.8853,VALID,151,VALID,1.27148,
2012-02-08, 01:35:04,VALID,916.805,VALID,0,VALID,97.0461,VALID,0,VALID,18.8254,VALID,150,VALID,0.941016,
2012-02-08, 01:36:04,VALID,916.809,VALID,0,VALID,97.0766,VALID,0,VALID,18.8059,VALID,150,VALID,0.659766,
2012-02-08, 01:37:04,VALID,916.783,VALID,0,VALID,97.1376,VALID,0,VALID,18.8268,VALID,150,VALID,1.59219,
2012-02-08, 01:38:04,VALID,916.81,VALID,0,VALID,97.0918,VALID,0,VALID,18.8059,VALID,150,VALID,1.19648,
2012-02-08, 01:39:04,VALID,916.809,VALID,0,VALID,97.1299,VALID,0,VALID,18.8254,VALID,136,VALID,1.24805,
2012-02-08, 01:40:04,VALID,916.797,VALID,0,VALID,97.0918,VALID,0,VALID,18.7446,VALID,119,VALID,1.28711,
2012-02-08, 01:41:04,VALID,916.808,VALID,0,VALID,97.1147,VALID,0,VALID,18.8297,VALID,119,VALID,0.821484,
2012-02-08, 01:42:04,VALID,916.867,VALID,0,VALID,97.1223,VALID,0,VALID,18.7265,VALID,119,VALID,0.569922,
2012-02-08, 01:43:04,VALID,916.853,VALID,0,VALID,97.1528,VALID,0,VALID,18.707,VALID,119,VALID,0.703516,
2012-02-08, 01:44:04,VALID,916.876,VALID,0,VALID,97.1604,VALID,0,VALID,18.7503,VALID,119,VALID,0.597656,
2012-02-08, 01:45:04,VALID,916.864,VALID,0,VALID,97.2214,VALID,0,VALID,18.7279,VALID,119,VALID,1.04492,
2012-02-08, 01:46:04,VALID,916.859,VALID,0,VALID,97.2595,VALID,0,VALID,18.7697,VALID,119,VALID,0.413281,
2012-02-08, 01:47:04,VALID,916.868,VALID,0,VALID,97.3129,VALID,0,VALID,18.7864,VALID,130,VALID,1.14258,
2012-02-08, 01:48:04,VALID,916.861,VALID,0,VALID,97.2824,VALID,0,VALID,18.8073,VALID,129,VALID,0.377734,
2012-02-08, 01:49:04,VALID,916.851,VALID,0,VALID,97.2824,VALID,0,VALID,18.7669,VALID,129,VALID,0.630078,
2012-02-08, 01:50:04,VALID,916.897,VALID,0,VALID,97.29,VALID,0,VALID,18.8492,VALID,129,VALID,0.59375,
2012-02-08, 01:51:04,VALID,916.875,VALID,0,VALID,97.3358,VALID,0,VALID,18.8463,VALID,129,VALID,0.483203,
2012-02-08, 01:52:04,VALID,916.899,VALID,0,VALID,97.3434,VALID,0,VALID,18.8254,VALID,129,VALID,0.269141,
2012-02-08, 01:53:04,VALID,916.905,VALID,0,VALID,97.3129,VALID,0,VALID,18.824,VALID,129,VALID,0.660547,
2012-02-08, 01:54:04,VALID,916.914,VALID,0,VALID,97.3358,VALID,0,VALID,18.8658,VALID,123,VALID,1.22187,
2012-02-08, 01:55:04,VALID,916.89,VALID,0,VALID,97.3434,VALID,0,VALID,18.8463,VALID,124,VALID,0.930078,
2012-02-08, 01:56:04,VALID,916.885,VALID,0,VALID,97.351,VALID,0,VALID,18.8463,VALID,127,VALID,1.05938,
2012-02-08, 01:57:04,VALID,916.873,VALID,0,VALID,97.3281,VALID,0,VALID,18.8463,VALID,136,VALID,0.663672,
2012-02-08, 01:58:04,VALID,916.874,VALID,0,VALID,97.3815,VALID,0,VALID,18.8658,VALID,136,VALID,1.36719,
2012-02-08, 01:59:04,VALID,916.868,VALID,0,VALID,97.3739,VALID,0,VALID,18.8449,VALID,136,VALID,0.988672,
2012-02-08, 02:00:04,VALID,916.857,VALID,0,VALID,97.3663,VALID,0,VALID,18.8449,VALID,136,VALID,0.5875,
2012-02-08, 02:01:04,VALID,916.861,VALID,0,VALID,97.3663,VALID,0,VALID,18.9062,VALID,136,VALID,0.891016,
2012-02-08, 02:02:04,VALID,916.858,VALID,0,VALID,97.351,VALID,0,VALID,18.8658,VALID,136,VALID,0.783203,
2012-02-08, 02:03:04,VALID,916.85,VALID,0,VALID,97.3739,VALID,0,VALID,18.8449,VALID,136,VALID,0.298438,
2012-02-08, 02:04:04,VALID,916.85,VALID,0,VALID,97.3968,VALID,0,VALID,18.8449,VALID,136,VALID,0.522266,
2012-02-08, 02:05:04,VALID,916.845,VALID,0,VALID,97.3663,VALID,0,VALID,18.8853,VALID,136,VALID,0.542188,
2012-02-08, 02:06:04,VALID,916.858,VALID,0,VALID,97.3358,VALID,0,VALID,18.8254,VALID,136,VALID,0.427344,
2012-02-08, 02:07:04,VALID,916.866,VALID,0,VALID,97.3586,VALID,0,VALID,18.8059,VALID,136,VALID,0.309766,
2012-02-08, 02:08:04,VALID,916.841,VALID,0,VALID,97.412,VALID,0,VALID,18.8463,VALID,136,VALID,0,
2012-02-08, 02:09:04,VALID,916.82,VALID,0,VALID,97.3815,VALID,0,VALID,18.8658,VALID,136,VALID,0,
2012-02-08, 02:10:04,VALID,916.836,VALID,0,VALID,97.3663,VALID,0,VALID,18.8477,VALID,136,VALID,0.000390625,
2012-02-08, 02:11:04,VALID,916.806,VALID,0,VALID,97.3281,VALID,0,VALID,18.8477,VALID,136,VALID,0.15,
2012-02-08, 02:12:04,VALID,916.839,VALID,0,VALID,97.2595,VALID,0,VALID,18.7293,VALID,136,VALID,0.36875,
2012-02-08, 02:13:04,VALID,916.831,VALID,0,VALID,97.1986,VALID,0,VALID,18.6903,VALID,136,VALID,0.447266,
2012-02-08, 02:14:04,VALID,916.801,VALID,0,VALID,97.1833,VALID,0,VALID,18.5705,VALID,136,VALID,0.573438,
2012-02-08, 02:15:04,VALID,916.83,VALID,0,VALID,97.3586,VALID,0,VALID,18.5914,VALID,136,VALID,0.554297,
2012-02-08, 02:16:04,VALID,916.82,VALID,0,VALID,97.3968,VALID,0,VALID,18.6319,VALID,136,VALID,0.499609,
2012-02-08, 02:17:04,VALID,916.815,VALID,0,VALID,97.3663,VALID,0,VALID,18.6124,VALID,136,VALID,0.475781,
2012-02-08, 02:18:04,VALID,916.805,VALID,0,VALID,97.4044,VALID,0,VALID,18.6333,VALID,136,VALID,0.566797,
2012-02-08, 02:19:04,VALID,916.798,VALID,0,VALID,97.4273,VALID,0,VALID,18.6124,VALID,136,VALID,0.880469,
2012-02-08, 02:20:04,VALID,916.756,VALID,0,VALID,97.4349,VALID,0,VALID,18.6319,VALID,135,VALID,0.970703,
2012-02-08, 02:21:04,VALID,916.706,VALID,0,VALID,97.3891,VALID,0,VALID,18.6138,VALID,125,VALID,1.04297,
2012-02-08, 02:22:04,VALID,916.685,VALID,0,VALID,97.3891,VALID,0,VALID,18.5135,VALID,125,VALID,0.921484,
2012-02-08, 02:23:04,VALID,916.659,VALID,0,VALID,97.4654,VALID,0,VALID,18.572,VALID,126,VALID,1.15703,
2012-02-08, 02:24:04,VALID,916.633,VALID,0,VALID,97.4425,VALID,0,VALID,18.5107,VALID,125,VALID,1.34023,
2012-02-08, 02:25:04,VALID,916.644,VALID,0,VALID,97.4501,VALID,0,VALID,18.572,VALID,126,VALID,1.0918,
2012-02-08, 02:26:04,VALID,916.658,VALID,0,VALID,97.4501,VALID,0,VALID,18.6152,VALID,124,VALID,1.00859,
2012-02-08, 02:27:04,VALID,916.64,VALID,0,VALID,97.4273,VALID,0,VALID,18.5734,VALID,112,VALID,1.54023,
2012-02-08, 02:28:04,VALID,916.642,VALID,0,VALID,97.4349,VALID,0,VALID,18.5316,VALID,91,VALID,0.860547,
2012-02-08, 02:29:04,VALID,916.67,VALID,0,VALID,97.3586,VALID,0,VALID,18.5358,VALID,77,VALID,1.00742,
2012-02-08, 02:30:04,VALID,916.665,VALID,0,VALID,97.3739,VALID,0,VALID,18.4146,VALID,80,VALID,0.908594,
2012-02-08, 02:31:04,VALID,916.651,VALID,0,VALID,97.4196,VALID,0,VALID,18.4745,VALID,80,VALID,0.916797,
2012-02-08, 02:32:04,VALID,916.64,VALID,0,VALID,97.3815,VALID,0,VALID,18.4968,VALID,88,VALID,0.928516,
2012-02-08, 02:33:04,VALID,916.598,VALID,0,VALID,97.3663,VALID,0,VALID,18.4592,VALID,93,VALID,1.12422,
2012-02-08, 02:34:04,VALID,916.608,VALID,0,VALID,97.3815,VALID,0,VALID,18.4188,VALID,103,VALID,0.854297,
2012-02-08, 02:35:04,VALID,916.585,VALID,0,VALID,97.3891,VALID,0,VALID,18.3756,VALID,103,VALID,1.0293,
2012-02-08, 02:36:04,VALID,916.581,VALID,0,VALID,97.5111,VALID,0,VALID,18.416,VALID,103,VALID,1.33867,
2012-02-08, 02:37:04,VALID,916.572,VALID,0,VALID,97.4959,VALID,0,VALID,18.4578,VALID,103,VALID,1.31211,
2012-02-08, 02:38:04,VALID,916.555,VALID,0,VALID,97.4959,VALID,0,VALID,18.4369,VALID,103,VALID,0.848047,
2012-02-08, 02:39:04,VALID,916.535,VALID,0,VALID,97.5035,VALID,0,VALID,18.4369,VALID,103,VALID,1.2375,
2012-02-08, 02:40:04,VALID,916.537,VALID,0,VALID,97.5645,VALID,0,VALID,18.4146,VALID,103,VALID,1.17188,
2012-02-08, 02:41:04,VALID,916.462,VALID,0,VALID,97.5492,VALID,0,VALID,18.4968,VALID,114,VALID,1.32422,
2012-02-08, 02:42:04,VALID,916.483,VALID,0,VALID,97.534,VALID,0,VALID,18.5163,VALID,115,VALID,1.18711,
2012-02-08, 02:43:04,VALID,916.454,VALID,0,VALID,97.5416,VALID,0,VALID,18.4745,VALID,127,VALID,1.36133,
2012-02-08, 02:44:04,VALID,916.457,VALID,0,VALID,97.5645,VALID,0,VALID,18.4759,VALID,134,VALID,1.8957,
2012-02-08, 02:45:04,VALID,916.427,VALID,0,VALID,97.5721,VALID,0,VALID,18.4954,VALID,128,VALID,1.32187,
2012-02-08, 02:46:04,VALID,916.452,VALID,0,VALID,97.6102,VALID,0,VALID,18.4926,VALID,138,VALID,1.40859,
2012-02-08, 02:47:04,VALID,916.456,VALID,0,VALID,97.6178,VALID,0,VALID,18.5525,VALID,132,VALID,2.08828,
2012-02-08, 02:48:04,VALID,916.457,VALID,0,VALID,97.6102,VALID,0,VALID,18.5929,VALID,132,VALID,1.57266,
2012-02-08, 02:49:04,VALID,916.44,VALID,0,VALID,97.5873,VALID,0,VALID,18.5734,VALID,131,VALID,0.863672,
2012-02-08, 02:50:04,VALID,916.425,VALID,0,VALID,97.6026,VALID,0,VALID,18.5496,VALID,132,VALID,1.39141,
2012-02-08, 02:51:04,VALID,916.444,VALID,0,VALID,97.5873,VALID,0,VALID,18.5316,VALID,130,VALID,1.44219,
2012-02-08, 02:52:04,VALID,916.416,VALID,0,VALID,97.6026,VALID,0,VALID,18.572,VALID,131,VALID,1.30352,
2012-02-08, 02:53:04,VALID,916.409,VALID,0,VALID,97.6178,VALID,0,VALID,18.5914,VALID,138,VALID,1.7875,
2012-02-08, 02:54:04,VALID,916.415,VALID,0,VALID,97.5797,VALID,0,VALID,18.5705,VALID,137,VALID,1.35352,
2012-02-08, 02:55:04,VALID,916.417,VALID,0,VALID,97.5797,VALID,0,VALID,18.6319,VALID,133,VALID,1.24102,
2012-02-08, 02:56:04,VALID,916.411,VALID,0,VALID,97.5645,VALID,0,VALID,18.6138,VALID,131,VALID,1.10742,
2012-02-08, 02:57:04,VALID,916.383,VALID,0,VALID,97.5797,VALID,0,VALID,18.5734,VALID,131,VALID,1.37305,
2012-02-08, 02:58:04,VALID,916.365,VALID,0,VALID,97.595,VALID,0.107441,VALID,18.5929,VALID,143,VALID,1.38242,
2012-02-08, 02:59:04,VALID,916.347,VALID,0,VALID,97.5873,VALID,0,VALID,18.5914,VALID,135,VALID,1.53164,
2012-02-08, 03:00:04,VALID,916.319,VALID,0,VALID,97.6255,VALID,0.107441,VALID,18.6124,VALID,148,VALID,1.20859,
2012-02-08, 03:01:04,VALID,916.328,VALID,0,VALID,97.6178,VALID,0.107441,VALID,18.5496,VALID,145,VALID,1.15703,
2012-02-08, 03:02:04,VALID,916.286,VALID,0,VALID,97.6026,VALID,0.107441,VALID,18.5496,VALID,143,VALID,1.00664,
2012-02-08, 03:03:04,VALID,916.315,VALID,0,VALID,97.6102,VALID,0.107441,VALID,18.5316,VALID,143,VALID,0.571484,
2012-02-08, 03:04:04,VALID,916.294,VALID,0,VALID,97.6178,VALID,0,VALID,18.5914,VALID,143,VALID,0.684375,
2012-02-08, 03:05:04,VALID,916.284,VALID,0,VALID,97.6026,VALID,0.107441,VALID,18.5107,VALID,135,VALID,1.18984,
2012-02-08, 03:06:04,VALID,916.262,VALID,0,VALID,97.6178,VALID,0,VALID,18.5525,VALID,135,VALID,1.20078,
2012-02-08, 03:07:04,VALID,916.254,VALID,0,VALID,97.6102,VALID,0,VALID,18.5121,VALID,135,VALID,0.740625,
2012-02-08, 03:08:04,VALID,916.229,VALID,0,VALID,97.6178,VALID,0,VALID,18.5344,VALID,131,VALID,1.31484,
2012-02-08, 03:09:04,VALID,916.204,VALID,0,VALID,97.6255,VALID,0,VALID,18.4731,VALID,122,VALID,1.01602,
2012-02-08, 03:10:04,VALID,916.184,VALID,0,VALID,97.6178,VALID,0,VALID,18.4717,VALID,122,VALID,0.851563,
2012-02-08, 03:11:04,VALID,916.203,VALID,0,VALID,97.6331,VALID,0.107441,VALID,18.4759,VALID,122,VALID,0.940234,
2012-02-08, 03:12:04,VALID,916.196,VALID,0,VALID,97.6178,VALID,0.107441,VALID,18.4536,VALID,122,VALID,0.666797,
2012-02-08, 03:13:04,VALID,916.228,VALID,0,VALID,97.6331,VALID,0,VALID,18.4759,VALID,122,VALID,0.917969,
2012-02-08, 03:14:04,VALID,916.187,VALID,0,VALID,97.6255,VALID,0,VALID,18.4355,VALID,121,VALID,0.669531,
2012-02-08, 03:15:04,VALID,916.196,VALID,0,VALID,97.6483,VALID,0,VALID,18.4369,VALID,121,VALID,0.632422,
2012-02-08, 03:16:04,VALID,916.178,VALID,0,VALID,97.6636,VALID,0,VALID,18.416,VALID,122,VALID,0.516016,
2012-02-08, 03:17:04,VALID,916.144,VALID,0,VALID,97.6483,VALID,0,VALID,18.4369,VALID,121,VALID,0.566406,
2012-02-08, 03:18:04,VALID,916.145,VALID,0,VALID,97.656,VALID,0,VALID,18.4578,VALID,121,VALID,0.701172,
2012-02-08, 03:19:04,VALID,916.13,VALID,0,VALID,97.656,VALID,0,VALID,18.4369,VALID,122,VALID,0.952734,
2012-02-08, 03:20:04,VALID,916.087,VALID,0,VALID,97.656,VALID,0,VALID,18.3561,VALID,122,VALID,0.860937,
2012-02-08, 03:21:04,VALID,916.1,VALID,0,VALID,97.6636,VALID,0,VALID,18.3366,VALID,98,VALID,0.995313,
2012-02-08, 03:22:04,VALID,916.108,VALID,0,VALID,97.6636,VALID,0,VALID,18.3575,VALID,107,VALID,0.619922,
2012-02-08, 03:23:04,VALID,916.083,VALID,0,VALID,97.6483,VALID,0,VALID,18.3394,VALID,120,VALID,0.953906,
2012-02-08, 03:24:04,VALID,916.051,VALID,0,VALID,97.7093,VALID,0,VALID,18.3589,VALID,120,VALID,0.764844,
2012-02-08, 03:25:04,VALID,916.081,VALID,0,VALID,97.7398,VALID,0,VALID,18.338,VALID,132,VALID,0.989062,
2012-02-08, 03:26:04,VALID,916.082,VALID,0,VALID,97.7169,VALID,0,VALID,18.3798,VALID,138,VALID,0.860937,
2012-02-08, 03:27:04,VALID,916.075,VALID,0,VALID,97.7322,VALID,0,VALID,18.4174,VALID,160,VALID,1.01523,
2012-02-08, 03:28:04,VALID,916.046,VALID,0,VALID,97.7474,VALID,0,VALID,18.3965,VALID,146,VALID,1.21328,
2012-02-08, 03:29:04,VALID,916.044,VALID,0,VALID,97.7093,VALID,0,VALID,18.3979,VALID,139,VALID,1.03516,
2012-02-08, 03:30:04,VALID,916.039,VALID,0,VALID,97.7017,VALID,0,VALID,18.3575,VALID,145,VALID,1.07148,
2012-02-08, 03:31:04,VALID,916.02,VALID,0,VALID,97.7551,VALID,0,VALID,18.3965,VALID,147,VALID,1.35,
2012-02-08, 03:32:04,VALID,916.017,VALID,0,VALID,97.7474,VALID,0,VALID,18.416,VALID,147,VALID,1.14844,
2012-02-08, 03:33:04,VALID,916.013,VALID,0,VALID,97.7856,VALID,0,VALID,18.455,VALID,142,VALID,1.46602,
2012-02-08, 03:34:04,VALID,916.002,VALID,0,VALID,97.7627,VALID,0,VALID,18.4355,VALID,150,VALID,1.68477,
2012-02-08, 03:35:04,VALID,915.993,VALID,0,VALID,97.7779,VALID,0,VALID,18.4968,VALID,160,VALID,1.25117,
2012-02-08, 03:36:04,VALID,916.014,VALID,0,VALID,97.7627,VALID,0,VALID,18.4759,VALID,155,VALID,1.07305,
2012-02-08, 03:37:04,VALID,916.025,VALID,0,VALID,97.7856,VALID,0,VALID,18.4968,VALID,166,VALID,1.29102,
2012-02-08, 03:38:04,VALID,916.018,VALID,0,VALID,97.7474,VALID,0,VALID,18.4759,VALID,143,VALID,0.785937,
2012-02-08, 03:39:04,VALID,915.987,VALID,0,VALID,97.7779,VALID,0,VALID,18.5177,VALID,166,VALID,0.861719,
2012-02-08, 03:40:04,VALID,915.982,VALID,0,VALID,97.7474,VALID,0,VALID,18.455,VALID,150,VALID,1.41562,
2012-02-08, 03:41:04,VALID,915.948,VALID,0,VALID,97.7551,VALID,0,VALID,18.4355,VALID,164,VALID,1.25195,
2012-02-08, 03:42:04,VALID,915.961,VALID,0,VALID,97.7627,VALID,0,VALID,18.4564,VALID,158,VALID,1.27695,
2012-02-08, 03:43:04,VALID,915.975,VALID,0,VALID,97.7627,VALID,0,VALID,18.4773,VALID,150,VALID,1.70273,
2012-02-08, 03:44:04,VALID,915.968,VALID,0,VALID,97.7932,VALID,0,VALID,18.4564,VALID,150,VALID,1.10234,